[[{"header":{"parameterUnit":"m.s-1","parameterCategory":1,"la1":30.2991,"la2":30.254,"lo1":-89.0895,"lo2":-89.0444,"dy":0.0017,"dx":0.0017,"nx":28,"ny":28,"refTime":"2024-04-08T21:00:00:Z","depth":0,"parameterNumber":2,"parameterNumberName":"U-component_of_WINDS"},"data":[0,0,0,0,0,0,0,0,0,0,0,0,0,0,0,0,0,0,0,0,0,0,0,0,0,0,0,0,0,0,0,0,0,0,0,0,0,0,0,0,0,0,0,0,0,0,0,0,0,0,0,0,0,0,0,0,0,0,-6.826,-6.826,0,-6.8281,-6.8281,-6.8281,-6.8212,-6.821,-6.8207,-6.8205,-6.8224,-6.8227,-6.8229,0,0,0,0,0,0,0,0,0,0,0,0,0,-6.8156,-6.8159,-6.826,-6.826,-6.826,-6.8281,-6.8281,-6.8281,-6.8212,-6.8209,-6.8207,-6.8205,-6.8223,-6.8226,-6.8229,0,0,0,0,0,0,0,0,0,0,0,0,0,-6.8192,-6.8159,-6.826,-6.8228,-6.8226,-6.8281,-6.8281,-6.8282,-6.8213,-6.8209,-6.8206,-6.8203,-6.8222,-6.8226,-6.823,-6.8315,0,0,-6.8241,-6.8242,0,0,0,0,0,0,0,0,-6.819,-6.8196,-6.8233,-6.823,-6.8228,-6.8241,-6.8252,-6.8293,-6.8213,-6.8217,-6.8205,-6.8202,-6.8232,-6.8235,-6.8245,-6.8316,-6.8317,-6.8241,-6.8243,-6.8245,-6.8246,0,0,0,0,0,0,0,-6.8188,-6.8194,-6.8268,-6.8233,-6.823,-6.8212,-6.8214,-6.8259,-6.8242,-6.8217,-6.8212,-6.8215,-6.823,-6.8242,-6.8245,-6.8317,-6.8241,-6.8244,-6.8247,-6.8248,-6.8458,-6.8461,0,0,0,0,0,0,-6.819,-6.8193,-6.8267,-6.8269,-6.8201,-6.8217,-6.8218,-6.8239,-6.8241,-6.8239,-6.8218,-6.8212,-6.8237,-6.8241,-6.8246,-6.8344,-6.8245,-6.8248,-6.8251,-6.8455,-6.8459,-6.8463,0,0,0,0,0,0,-6.8188,-6.8197,-6.8266,-6.8229,-6.8237,-6.8222,-6.8246,-6.8242,-6.8253,-6.8242,-6.8239,-6.8234,-6.8235,-6.8241,-6.8298,-6.8344,-6.825,-6.8253,-6.8451,-6.8456,-6.8461,-6.8543,0,0,0,0,0,0,-6.8185,-6.8197,-6.8229,-6.8231,-6.8239,-6.832,-6.8249,-6.8244,-6.826,-6.8253,-6.8256,-6.8253,-6.8233,-6.8293,-6.8302,-6.8347,-6.8256,-6.8447,-6.8453,-6.8459,-6.8536,-6.855,-6.8563,0,0,0,0,0,-6.8182,-6.8251,-6.8231,-6.8241,-6.828,-6.8322,-6.8327,-6.8303,-6.8264,-6.8296,-6.829,-6.8253,-6.8339,-6.83,-6.8309,-6.8356,-6.8444,-6.8451,-6.8459,-6.853,-6.8548,-6.8562,0,0,0,0,0,0,-6.8254,-6.8251,-6.8229,-6.8301,-6.8313,-6.8311,-6.835,-6.8322,-6.8344,-6.8336,-6.8304,-6.8306,-6.8369,-6.8369,-6.8326,-6.8439,-6.8384,-6.8394,-6.8435,-6.8452,-6.8465,-6.8461,-6.8259,0,0,0,0,0,-6.8279,-6.8315,-6.831,-6.8374,-6.8381,-6.8365,-6.8383,-6.8364,-6.8374,-6.8378,-6.8375,-6.8385,-6.8414,-6.8434,-6.846,-6.8538,-6.8536,-6.8575,-6.8588,-6.8599,-6.8606,-6.8645,-6.8661,-6.8488,-6.8488,-6.8487,0,0,-6.833,-6.8332,-6.8356,-6.8389,-6.8395,-6.8432,-6.8369,-6.8411,-6.8437,-6.8384,-6.8437,-6.8437,-6.8446,-6.8514,-6.8543,-6.8516,-6.8655,-6.8608,-6.8617,-6.8618,-6.8655,-6.8671,-6.8686,-6.8493,-6.8492,-6.8491,0,0,-6.844,-6.8447,-6.85,-6.8509,-6.852,-6.851,-6.8523,-6.8526,-6.8523,-6.8577,-6.8538,-6.8569,-6.862,-6.8628,-6.8638,-6.8754,-6.8721,-6.8764,-6.8831,-6.887,-6.8883,-6.8895,-6.8933,-6.8948,-6.8773,-6.8773,-6.8773,0,-6.85,-6.8554,-6.8531,-6.8575,-6.8589,-6.8546,-6.8599,-6.8608,-6.8627,-6.8638,-6.8607,-6.867,-6.8674,-6.8742,-6.877,-6.8782,-6.8794,-6.8761,-6.8884,-6.8895,-6.8906,-6.8942,-6.8957,-6.8778,-6.8777,-6.8777,-6.8776,0,-6.8627,-6.8666,-6.8708,-6.8728,-6.8748,-6.8797,-6.878,-6.8803,-6.8783,-6.8775,-6.8831,-6.8834,-6.8859,-6.8875,-6.8856,-6.8941,-6.8923,-6.8889,-6.8833,-6.8928,-6.8961,-6.8975,-6.8785,-6.8783,-6.8782,-6.878,0,0,-6.8779,-6.8789,-6.8804,-6.8812,-6.8823,-6.8851,-6.8899,-6.8925,-6.8944,-6.896,-6.8996,-6.9042,-6.901,-6.9023,-6.9005,-6.9039,-6.9128,-6.9001,-6.9,-6.9021,-6.9218,-6.924,-6.9257,-6.9108,-6.911,-6.9112,-6.9216,0,-6.8885,-6.8965,-6.8946,-6.9025,-6.9059,-6.9019,-6.906,-6.907,-6.9065,-6.9093,-6.9087,-6.9118,-6.9076,-6.9083,-6.9116,-6.911,-6.9166,-6.9103,-6.9138,-6.914,-6.9133,-6.9275,-6.9299,-6.9396,-6.9229,-6.9232,-6.9233,0,-6.9018,-6.904,-6.9122,-6.9127,-6.9141,-6.9177,-6.9199,-6.9228,-6.9239,-6.9232,-6.9248,-6.9223,-6.9268,-6.9215,-6.9276,-6.9233,-6.9247,-6.9247,-6.925,-6.9249,-6.9189,-6.9274,-6.9427,-6.944,-6.9254,-6.9252,-6.9251,0,-6.9117,-6.9167,-6.9222,-6.9231,-6.924,-6.9266,-6.927,-6.9279,-6.9296,-6.9316,-6.9326,-6.9351,-6.9364,-6.9383,-6.9365,-6.9329,-6.9428,-6.9374,-6.9422,-6.9422,-6.944,-6.9438,-6.9594,-6.9457,-6.9457,-6.9456,-6.9456,0,-6.9234,-6.9285,-6.9266,-6.93,-6.9356,-6.9335,-6.939,-6.939,-6.9398,-6.943,-6.9399,-6.9429,-6.9406,-6.9434,-6.9421,-6.9471,-6.9479,-6.9473,-6.9468,-6.9474,-6.9474,-6.9479,-6.947,-6.946,-6.9459,-6.9459,-6.9458,0,-6.9351,-6.9342,-6.9399,-6.9403,-6.9405,-6.9446,-6.9448,-6.9479,-6.9473,-6.9514,-6.9522,-6.9512,-6.9544,-6.953,-6.9563,-6.9554,-6.9618,-6.9607,-6.9614,-6.961,-6.9657,-6.9651,-6.9817,-6.9837,-6.9691,-6.9693,-6.9694,0,-6.9425,-6.9463,-6.9472,-6.9492,-6.9499,-6.9531,-6.9549,-6.953,-6.9549,-6.9566,-6.9594,-6.9624,-6.9645,-6.9698,-6.9693,-6.9718,-6.9704,-6.9761,-6.9707,-6.9711,-6.9701,-6.9697,-6.9699,-6.977,-6.9772,-6.9773,-6.9774,0,-6.9555,-6.9549,-6.9576,-6.9602,-6.9624,-6.9643,-6.9659,-6.9677,-6.9659,-6.9682,-6.9715,-6.9732,-6.9767,-6.9796,-6.9818,-6.9822,-6.9794,-6.9792,-6.9804,-6.9807,-6.9809,-6.9805,-6.9639,-6.9787,-6.9786,-6.9785,-6.9784,-6.9784,-6.965,-6.9682,-6.9693,-6.9724,-6.9735,-6.9751,-6.978,-6.9778,-6.9806,-6.9832,-6.9821,-6.9858,-6.9868,-6.9896,-6.9903,-6.9931,-6.9909,-6.9926,-6.993,-6.9934,-6.9938,-6.9809,-6.9936,-6.9936,-6.9935,-6.9935,-6.9935,0,-6.9776,-6.9782,-6.9811,-6.9835,-6.9859,-6.9835,-6.9852,-6.9873,-6.9907,-6.992,-6.9943,-6.998,-7.0008,-7.0007,-7.0032,-7.0055,-7.0043,-7.0062,-7.0058,-7.0058,-6.9959,-6.9944,-7.0071,-7.0071,-7.0071,-7.0071,-7.0071,-7.0071,-6.9844,-6.9895,-6.9891,-6.9947,-6.9953,-6.999,-7.0001,-7.0016,-7.0025,-7.0069,-7.0092,-7.0092,-7.0099,-7.0125,-7.0149,-7.0148,-7.0157,-7.018,-7.0174,-7.008,-7.0066,-7.0053,-7.0039,-7.0183,-7.0183,-7.0271,-7.0271,-7.0272]},{"header":{"parameterUnit":"m.s-1","parameterCategory":1,"la1":30.2991,"la2":30.254,"lo1":-89.0895,"lo2":-89.0444,"dy":0.0017,"dx":0.0017,"nx":28,"ny":28,"refTime":"2024-04-08T21:00:00:Z","depth":0,"parameterNumber":3,"parameterNumberName":"V-component_of_WINDS"},"data":[0,0,0,0,0,0,0,0,0,0,0,0,0,0,0,0,0,0,0,0,0,0,0,0,0,0,0,0,0,0,0,0,0,0,0,0,0,0,0,0,0,0,0,0,0,0,0,0,0,0,0,0,0,0,0,0,0,0,4.4199,4.4199,0,4.4205,4.4205,4.4205,4.4175,4.4175,4.4174,4.4173,4.4175,4.4175,4.4176,0,0,0,0,0,0,0,0,0,0,0,0,0,4.4161,4.4161,4.4199,4.4199,4.4199,4.4205,4.4205,4.4205,4.4176,4.4175,4.4174,4.4173,4.4174,4.4175,4.4176,0,0,0,0,0,0,0,0,0,0,0,0,0,4.4173,4.4162,4.4199,4.4185,4.4184,4.4204,4.4205,4.4205,4.4176,4.4175,4.4173,4.4172,4.4174,4.4175,4.4176,4.4209,0,0,4.418,4.4181,0,0,0,0,0,0,0,0,4.4172,4.4174,4.4187,4.4186,4.4185,4.4188,4.4192,4.4206,4.4176,4.4179,4.4173,4.4172,4.418,4.418,4.4184,4.4209,4.4209,4.418,4.4181,4.4181,4.4182,0,0,0,0,0,0,0,4.4171,4.4174,4.4201,4.4187,4.4186,4.4178,4.4179,4.4194,4.4186,4.4178,4.4176,4.4178,4.4179,4.4183,4.4184,4.4209,4.418,4.4181,4.4182,4.4182,4.4263,4.4265,0,0,0,0,0,0,4.4173,4.4173,4.4201,4.4201,4.4175,4.418,4.418,4.4188,4.4186,4.4184,4.4179,4.4176,4.4182,4.4183,4.4184,4.4223,4.4181,4.4183,4.4183,4.4262,4.4264,4.4265,0,0,0,0,0,0,4.4172,4.4175,4.42,4.4187,4.4189,4.4182,4.4191,4.4189,4.4193,4.4186,4.4184,4.4185,4.4181,4.4182,4.4204,4.4223,4.4183,4.4184,4.426,4.4262,4.4264,4.4302,0,0,0,0,0,0,4.4171,4.4175,4.4188,4.4187,4.419,4.4221,4.4192,4.419,4.4196,4.4193,4.4191,4.419,4.418,4.4202,4.4205,4.4224,4.4185,4.4258,4.4261,4.4264,4.4298,4.4305,4.431,0,0,0,0,0,4.417,4.4196,4.4188,4.4192,4.4206,4.4222,4.4223,4.4213,4.4197,4.421,4.4206,4.419,4.4221,4.4205,4.4207,4.4227,4.4257,4.426,4.4264,4.4296,4.4303,4.431,0,0,0,0,0,0,4.4196,4.4196,4.4187,4.4214,4.4219,4.4217,4.4232,4.4221,4.4228,4.4225,4.421,4.421,4.4234,4.4233,4.4215,4.426,4.4236,4.424,4.426,4.4267,4.4272,4.4272,4.4186,0,0,0,0,0,4.4206,4.4221,4.4219,4.4243,4.4246,4.4239,4.4245,4.4238,4.4241,4.4242,4.4239,4.4242,4.4253,4.426,4.4269,4.4299,4.4298,4.4314,4.4319,4.4324,4.4327,4.4345,4.4352,4.4276,4.4276,4.4276,0,0,4.4225,4.4226,4.4236,4.4249,4.4251,4.4266,4.424,4.4256,4.4267,4.4244,4.4265,4.4263,4.4266,4.4292,4.4304,4.4292,4.4349,4.4328,4.4332,4.4333,4.4349,4.4357,4.4363,4.4278,4.4277,4.4277,0,0,4.4267,4.427,4.4291,4.4296,4.4301,4.4296,4.4302,4.4303,4.4302,4.4323,4.4307,4.4319,4.4337,4.434,4.4344,4.4392,4.4378,4.4395,4.4425,4.4442,4.4448,4.4453,4.4472,4.4478,4.4399,4.4399,4.4399,0,4.429,4.4313,4.4303,4.4322,4.4329,4.4311,4.4333,4.4337,4.4344,4.4349,4.4336,4.436,4.436,4.4389,4.4401,4.4404,4.441,4.4395,4.4448,4.4454,4.4458,4.4475,4.4482,4.4401,4.4401,4.4401,4.44,0,4.4341,4.4357,4.4374,4.4384,4.4393,4.4413,4.4407,4.4417,4.4409,4.4406,4.4429,4.4429,4.444,4.4446,4.4437,4.4473,4.4466,4.4451,4.4427,4.4468,4.4484,4.449,4.4404,4.4403,4.4403,4.4402,0,0,4.4397,4.4406,4.4412,4.4418,4.4424,4.4436,4.4456,4.4468,4.4477,4.4484,4.45,4.4518,4.4505,4.451,4.4502,4.4517,4.4557,4.45,4.45,4.4511,4.4599,4.461,4.4618,4.4548,4.4549,4.455,4.4599,0,4.444,4.4476,4.447,4.4505,4.4521,4.4506,4.4523,4.4529,4.4528,4.4541,4.4539,4.4552,4.4533,4.4537,4.4551,4.4549,4.4574,4.4545,4.4563,4.4564,4.4563,4.4626,4.4638,4.4683,4.4605,4.4606,4.4607,0,4.4494,4.4506,4.4543,4.4549,4.4555,4.4572,4.4584,4.4596,4.4603,4.4601,4.4608,4.4598,4.4618,4.4595,4.4623,4.4604,4.4611,4.4611,4.4613,4.4614,4.4588,4.4629,4.4698,4.4705,4.4616,4.4615,4.4615,0,4.4533,4.4558,4.4584,4.4589,4.4597,4.4609,4.4613,4.4618,4.4627,4.4637,4.4643,4.4655,4.4661,4.4671,4.4664,4.4648,4.4694,4.4669,4.4693,4.4693,4.4702,4.4702,4.4773,4.4707,4.4707,4.4707,4.4706,0,4.4581,4.4605,4.4602,4.4618,4.4645,4.4638,4.4664,4.4665,4.4671,4.4687,4.4674,4.4689,4.468,4.4694,4.4689,4.4714,4.4717,4.4716,4.4714,4.4717,4.4717,4.4721,4.4718,4.4708,4.4708,4.4708,4.4707,0,4.4629,4.4628,4.4656,4.4663,4.4665,4.4684,4.469,4.4705,4.4704,4.4724,4.4729,4.4727,4.4743,4.4739,4.4755,4.4752,4.4784,4.4778,4.4782,4.4781,4.4805,4.4803,4.4881,4.4892,4.4818,4.4819,4.482,0,4.466,4.4678,4.4688,4.4699,4.4705,4.4722,4.4732,4.4726,4.4737,4.4748,4.4762,4.4778,4.479,4.4818,4.4817,4.4831,4.4825,4.4852,4.4827,4.483,4.4826,4.4826,4.4828,4.4856,4.4857,4.4858,4.4859,0,4.4715,4.4715,4.473,4.4747,4.476,4.4772,4.4782,4.4792,4.4787,4.48,4.4818,4.4828,4.4848,4.4864,4.4877,4.488,4.4869,4.4867,4.4873,4.4876,4.4878,4.4878,4.4796,4.4865,4.4864,4.4864,4.4863,4.4863,4.4756,4.4773,4.4783,4.4802,4.481,4.4821,4.4837,4.4839,4.4855,4.4872,4.4867,4.4888,4.4896,4.4913,4.4918,4.4934,4.4924,4.4933,4.4935,4.4937,4.4941,4.4876,4.4936,4.4936,4.4936,4.4936,4.4936,0,4.4812,4.4819,4.4836,4.4853,4.4868,4.4859,4.4871,4.4884,4.4903,4.4912,4.4926,4.4948,4.4965,4.4967,4.4983,4.4995,4.4991,4.4999,4.4998,4.4999,4.4948,4.4942,4.5003,4.5003,4.5003,4.5003,4.5003,4.5003,4.4842,4.4871,4.4872,4.4905,4.4911,4.4934,4.4942,4.4952,4.496,4.4986,4.5,4.5003,4.501,4.5026,4.5041,4.5041,4.5048,4.5059,4.5057,4.5009,4.5003,4.4996,4.499,4.506,4.506,4.5107,4.5107,4.5107]}]]